Regional Weather Roundup
Issued by NWS

Home | Current Version | Previous Version | Graphics & Text | Print | Product List | Glossary On
Versions: 1 2 3 4 5 6 7 8 9 10 11 12 13 14 15 16 17 18 19 20 21 22 23 24 25 26 27 28
000
ASUS45 KSLC 290810
RWRUT

UTAH REGIONAL WEATHER ROUNDUP
NATIONAL WEATHER SERVICE SALT LAKE CITY UT
200 AM MDT MON AUG 29 2016

UTZ001>011-023>025-290900-

NORTHERN UTAH

CITY           SKY/WX    TMP DP  RH WIND       PRES   REMARKS
BRIGHAM CITY     N/A     61  39  44 CALM      30.18S
HILL AFB       CLEAR     66  32  28 SE15      30.20S
LOGAN          CLEAR     58  43  57 CALM      30.21S
OGDEN          CLEAR     64  33  31 S6        30.18R
PROVO AIRPORT  CLEAR     61  39  44 CALM      30.19S
SALT LAKE CITY PTCLDY    69  36  29 S5        30.16S
VERNAL         CLEAR     60  39  45 W5        30.25S
WENDOVER       CLEAR     63  32  31 W7        30.18S
HEBER CITY     CLEAR     46  36  66 E5        30.28S
WEST JORDAN    CLEAR     63  34  33 CALM      30.20S

$$

UTZ012>022-026-027-290900-

SOUTHERN/CENTRAL UTAH

CITY           SKY/WX    TMP DP  RH WIND       PRES   REMARKS
BLANDING       CLEAR     59  42  52 NE6       30.33S
BRYCE CANYON   CLEAR     46  42  86 W9        30.41S
CEDAR CITY     CLEAR     62  36  37 SE8       30.26F
MILFORD        CLEAR     59  34  39 SW9       30.22R
MOAB/CYNLANDS  CLEAR     70  41  34 VRB5      30.17S
PRICE          CLEAR     63  37  38 SE3       30.29R
ST GEORGE      SUNNY     73  54  49 CALM      30.10F

$$

REGIONAL REPORTS     COLORADO/ARIZONA

CITY           SKY/WX    TMP DP  RH WIND       PRES   REMARKS
CRAIG, CO      CLOUDY    53  40  61 E3        30.32S
GRAND JUNCTION CLEAR     59  45  59 SE8       30.23S
RIFLE          CLOUDY    56  49  77 E5        30.30S
MONTROSE       CLOUDY    54  45  71 S5        30.32R
CORTEZ         CLEAR     49  45  86 E5        30.28R
PAGE, AZ       CLEAR     71  44  37 SW3       30.16S
GRAND CANYON   CLEAR     48  45  89 CALM      30.34S
KINGMAN        CLEAR     66  55  67 SE5       30.11F
FLAGSTAFF      CLEAR     45  43  93 CALM      30.35S

$$

REGIONAL REPORTS    NEVADA/IDAHO/WYOMING

CITY           SKY/WX    TMP DP  RH WIND       PRES   REMARKS
LAS VEGAS, NV  CLEAR     83  46  27 CALM      29.98F
ELY            CLEAR     49  26  41 S10       30.32R
ELKO           CLEAR     54  29  38 S3        30.23R
POCATELLO, ID  CLOUDY    59  36  42 CALM      30.20F
BURLEY         CLEAR     55  43  63 S3        30.17R
EVANSTON, WY   CLOUDY    57  28  33 SE7       30.39S
ROCK SPRINGS   CLEAR     58  25  28 W10       30.32S

$$




USA.gov is the U.S. government's official web portal to all federal, state and local government web resources and services.